Year,Month,Day,Hour,Minute,Value (Times are PST for barometer in hPa)
2015,08,29,00,00,993.02
2015,08,29,00,01,992.99
2015,08,29,00,02,992.96
2015,08,29,00,03,992.92
2015,08,29,00,04,992.89
2015,08,29,00,05,992.82
2015,08,29,00,06,992.82
2015,08,29,00,07,992.82
2015,08,29,00,08,992.79
2015,08,29,00,09,992.72
2015,08,29,00,10,992.65
2015,08,29,00,11,992.58
2015,08,29,00,12,992.62
2015,08,29,00,13,992.62
2015,08,29,00,14,992.55
2015,08,29,00,15,992.55
2015,08,29,00,16,992.52
2015,08,29,00,17,992.48
2015,08,29,00,18,992.48
2015,08,29,00,19,992.48
2015,08,29,00,20,992.52
2015,08,29,00,21,992.45
2015,08,29,00,22,992.42
2015,08,29,00,23,992.38
2015,08,29,00,24,992.35
2015,08,29,00,25,992.28
2015,08,29,00,26,992.28
2015,08,29,00,27,992.25
2015,08,29,00,28,992.21
2015,08,29,00,29,992.14
2015,08,29,00,30,992.14
2015,08,29,00,31,992.14
2015,08,29,00,32,992.11
2015,08,29,00,33,992.04
2015,08,29,00,34,992.04
2015,08,29,00,35,992.04
2015,08,29,00,36,992.04
2015,08,29,00,37,992.04
2015,08,29,00,38,991.97
2015,08,29,00,39,992.01
2015,08,29,00,40,992.01
2015,08,29,00,41,991.94
2015,08,29,00,42,991.91
2015,08,29,00,43,991.91
2015,08,29,00,44,991.84
2015,08,29,00,45,991.81
2015,08,29,00,46,991.81
2015,08,29,00,47,991.77
2015,08,29,00,48,991.70
2015,08,29,00,49,991.70
2015,08,29,00,50,991.67
2015,08,29,00,51,991.64
2015,08,29,00,52,991.67
2015,08,29,00,53,991.67
2015,08,29,00,54,991.60
2015,08,29,00,55,991.67
2015,08,29,00,56,991.57
2015,08,29,00,57,991.57
2015,08,29,00,58,991.53
2015,08,29,00,59,991.53
2015,08,29,01,00,991.53
2015,08,29,01,01,991.50
2015,08,29,01,02,991.50
2015,08,29,01,03,991.50
2015,08,29,01,04,991.47
2015,08,29,01,05,991.40
2015,08,29,01,06,991.40
2015,08,29,01,07,991.33
2015,08,29,01,08,991.33
2015,08,29,01,09,991.30
2015,08,29,01,10,991.33
2015,08,29,01,11,991.30
2015,08,29,01,13,991.30
2015,08,29,01,14,991.37
2015,08,29,01,15,991.37
2015,08,29,01,16,991.33
2015,08,29,01,17,991.26
2015,08,29,01,19,991.20
2015,08,29,01,20,991.13
2015,08,29,01,21,991.09
2015,08,29,01,22,991.06
2015,08,29,01,23,990.96
2015,08,29,01,24,990.93
2015,08,29,01,25,990.96
2015,08,29,01,26,990.93
2015,08,29,01,27,990.82
2015,08,29,01,28,990.82
2015,08,29,01,29,990.79
2015,08,29,01,30,990.82
2015,08,29,01,31,990.79
2015,08,29,01,32,990.82
2015,08,29,01,33,990.79
2015,08,29,01,34,990.82
2015,08,29,01,35,990.82
2015,08,29,01,36,990.82
2015,08,29,01,37,990.86
2015,08,29,01,38,990.86
2015,08,29,01,39,990.86
2015,08,29,01,40,990.82
2015,08,29,01,41,990.79
2015,08,29,01,42,990.82
2015,08,29,01,43,990.76
2015,08,29,01,44,990.82
2015,08,29,01,45,990.79
2015,08,29,01,46,990.79
2015,08,29,01,47,990.79
2015,08,29,01,48,990.79
2015,08,29,01,49,990.79
2015,08,29,01,50,990.76
2015,08,29,01,51,990.65
2015,08,29,01,52,990.62
2015,08,29,01,53,990.65
2015,08,29,01,54,990.62
2015,08,29,01,55,990.59
2015,08,29,01,56,990.55
2015,08,29,01,57,990.52
2015,08,29,01,58,990.45
2015,08,29,01,59,990.45
2015,08,29,02,00,990.45
2015,08,29,02,01,990.32
2015,08,29,02,02,990.28
2015,08,29,02,03,990.21
2015,08,29,02,04,990.21
2015,08,29,02,05,990.15
2015,08,29,02,06,990.18
2015,08,29,02,07,990.15
2015,08,29,02,08,990.11
2015,08,29,02,09,990.11
2015,08,29,02,10,990.11
2015,08,29,02,11,990.08
2015,08,29,02,12,990.08
2015,08,29,02,13,990.04
2015,08,29,02,14,990.01
2015,08,29,02,15,989.98
2015,08,29,02,16,989.98
2015,08,29,02,17,989.94
2015,08,29,02,18,989.91
2015,08,29,02,19,989.88
2015,08,29,02,20,989.81
2015,08,29,02,22,989.74
2015,08,29,02,23,989.74
2015,08,29,02,24,989.74
2015,08,29,02,25,989.74
2015,08,29,02,26,989.74
2015,08,29,02,27,989.67
2015,08,29,02,28,989.60
2015,08,29,02,29,989.64
2015,08,29,02,30,989.64
2015,08,29,02,31,989.60
2015,08,29,02,32,989.57
2015,08,29,02,33,989.47
2015,08,29,02,34,989.44
2015,08,29,02,35,989.44
2015,08,29,02,37,989.37
2015,08,29,02,38,989.33
2015,08,29,02,39,989.33
2015,08,29,02,40,989.30
2015,08,29,02,41,989.33
2015,08,29,02,42,989.33
2015,08,29,02,43,989.33
2015,08,29,02,44,989.27
2015,08,29,02,45,989.30
2015,08,29,02,46,989.27
2015,08,29,02,47,989.23
2015,08,29,02,48,989.27
2015,08,29,02,49,989.27
2015,08,29,02,50,989.27
2015,08,29,02,51,989.27
2015,08,29,02,52,989.23
2015,08,29,02,53,989.20
2015,08,29,02,54,989.13
2015,08,29,02,55,989.16
2015,08,29,02,56,989.13
2015,08,29,02,57,989.13
2015,08,29,02,58,989.10
2015,08,29,02,59,989.06
2015,08,29,03,00,989.06
2015,08,29,03,01,989.03
2015,08,29,03,02,988.99
2015,08,29,03,03,988.96
2015,08,29,03,04,988.93
2015,08,29,03,06,988.89
2015,08,29,03,07,988.89
2015,08,29,03,08,988.89
2015,08,29,03,09,988.89
2015,08,29,03,10,988.86
2015,08,29,03,11,988.83
2015,08,29,03,13,988.79
2015,08,29,03,14,988.79
2015,08,29,03,15,988.72
2015,08,29,03,16,988.69
2015,08,29,03,17,988.66
2015,08,29,03,18,988.66
2015,08,29,03,19,988.62
2015,08,29,03,20,988.62
2015,08,29,03,21,988.62
2015,08,29,03,22,988.59
2015,08,29,03,23,988.55
2015,08,29,03,24,988.55
2015,08,29,03,25,988.52
2015,08,29,03,26,988.49
2015,08,29,03,27,988.49
2015,08,29,03,28,988.45
2015,08,29,03,29,988.42
2015,08,29,03,30,988.39
2015,08,29,03,31,988.39
2015,08,29,03,33,988.35
2015,08,29,03,34,988.39
2015,08,29,03,35,988.35
2015,08,29,03,36,988.32
2015,08,29,03,37,988.32
2015,08,29,03,38,988.35
2015,08,29,03,39,988.32
2015,08,29,03,40,988.28
2015,08,29,03,41,988.28
2015,08,29,03,42,988.25
2015,08,29,03,43,988.18
2015,08,29,03,44,988.25
2015,08,29,03,45,988.18
2015,08,29,03,46,988.15
2015,08,29,03,47,988.18
2015,08,29,03,48,988.15
2015,08,29,03,49,988.15
2015,08,29,03,50,988.11
2015,08,29,03,51,988.11
2015,08,29,03,52,988.08
2015,08,29,03,53,988.01
2015,08,29,03,54,987.98
2015,08,29,03,55,987.95
2015,08,29,03,56,987.91
2015,08,29,03,57,987.91
2015,08,29,03,58,987.84
2015,08,29,03,59,987.84
2015,08,29,04,00,987.84
2015,08,29,04,01,987.64
2015,08,29,04,02,987.67
2015,08,29,04,03,987.67
2015,08,29,04,04,987.67
2015,08,29,04,05,987.64
2015,08,29,04,06,987.61
2015,08,29,04,07,987.71
2015,08,29,04,08,987.61
2015,08,29,04,09,987.57
2015,08,29,04,10,987.50
2015,08,29,04,11,987.50
2015,08,29,04,12,987.47
2015,08,29,04,13,987.47
2015,08,29,04,14,987.44
2015,08,29,04,15,987.47
2015,08,29,04,16,987.47
2015,08,29,04,17,987.44
2015,08,29,04,18,987.37
2015,08,29,04,19,987.37
2015,08,29,04,20,987.27
2015,08,29,04,21,987.27
2015,08,29,04,22,987.17
2015,08,29,04,23,987.06
2015,08,29,04,24,986.96
2015,08,29,04,25,986.86
2015,08,29,04,26,986.79
2015,08,29,04,27,986.69
2015,08,29,04,28,986.62
2015,08,29,04,29,986.59
2015,08,29,04,30,986.46
2015,08,29,04,31,986.39
2015,08,29,04,32,986.35
2015,08,29,04,33,986.35
2015,08,29,04,34,986.39
2015,08,29,04,35,986.49
2015,08,29,04,36,986.49
2015,08,29,04,37,986.56
2015,08,29,04,38,986.62
2015,08,29,04,39,986.69
2015,08,29,04,40,986.79
2015,08,29,04,41,986.90
2015,08,29,04,42,986.93
2015,08,29,04,43,986.96
2015,08,29,04,44,986.93
2015,08,29,04,45,986.90
2015,08,29,04,46,986.79
2015,08,29,04,47,986.69
2015,08,29,04,48,986.66
2015,08,29,04,49,986.59
2015,08,29,04,50,986.56
2015,08,29,04,52,986.62
2015,08,29,04,53,986.66
2015,08,29,04,54,986.73
2015,08,29,04,55,986.73
2015,08,29,04,56,986.73
2015,08,29,04,57,986.79
2015,08,29,04,58,986.83
2015,08,29,04,59,986.86
2015,08,29,05,00,986.86
2015,08,29,05,01,986.66
2015,08,29,05,03,986.46
2015,08,29,05,04,986.42
2015,08,29,05,05,986.39
2015,08,29,05,06,986.35
2015,08,29,05,07,986.35
2015,08,29,05,08,986.32
2015,08,29,05,09,986.29
2015,08,29,05,10,986.32
2015,08,29,05,11,986.35
2015,08,29,05,12,986.35
2015,08,29,05,13,986.32
2015,08,29,05,14,986.25
2015,08,29,05,15,986.22
2015,08,29,05,16,986.15
2015,08,29,05,17,986.12
2015,08,29,05,18,986.15
2015,08,29,05,19,986.12
2015,08,29,05,20,986.08
2015,08,29,05,21,986.01
2015,08,29,05,22,986.08
2015,08,29,05,23,986.08
2015,08,29,05,24,986.08
2015,08,29,05,25,986.05
2015,08,29,05,26,985.98
2015,08,29,05,27,985.88
2015,08,29,05,28,985.95
2015,08,29,05,29,985.95
2015,08,29,05,30,985.95
2015,08,29,05,31,986.01
2015,08,29,05,32,986.15
2015,08,29,05,34,986.08
2015,08,29,05,35,985.81
2015,08,29,05,36,985.74
2015,08,29,05,37,985.74
2015,08,29,05,38,985.81
2015,08,29,05,39,985.85
2015,08,29,05,40,985.85
2015,08,29,05,41,985.81
2015,08,29,05,42,985.78
2015,08,29,05,43,985.74
2015,08,29,05,44,985.74
2015,08,29,05,45,985.68
2015,08,29,05,46,985.64
2015,08,29,05,47,985.64
2015,08,29,05,48,985.61
2015,08,29,05,49,985.61
2015,08,29,05,50,985.61
2015,08,29,05,51,985.57
2015,08,29,05,52,985.54
2015,08,29,05,53,985.54
2015,08,29,05,54,985.47
2015,08,29,05,56,985.34
2015,08,29,05,57,985.27
2015,08,29,05,58,985.27
2015,08,29,05,59,985.13
2015,08,29,06,00,985.13
2015,08,29,06,01,985.07
2015,08,29,06,02,985.07
2015,08,29,06,03,985.03
2015,08,29,06,04,984.97
2015,08,29,06,07,984.73
2015,08,29,06,08,984.69
2015,08,29,06,09,984.59
2015,08,29,06,10,984.56
2015,08,29,06,11,984.59
2015,08,29,06,12,984.59
2015,08,29,06,13,984.56
2015,08,29,06,14,984.59
2015,08,29,06,15,984.52
2015,08,29,06,16,984.56
2015,08,29,06,17,984.46
2015,08,29,06,18,984.39
2015,08,29,06,19,984.39
2015,08,29,06,20,984.36
2015,08,29,06,21,984.25
2015,08,29,06,22,984.19
2015,08,29,06,23,984.12
2015,08,29,06,24,984.19
2015,08,29,06,25,984.12
2015,08,29,06,26,984.08
2015,08,29,06,27,984.05
2015,08,29,06,28,984.08
2015,08,29,06,29,984.02
2015,08,29,06,30,984.02
2015,08,29,06,31,983.78
2015,08,29,06,32,983.78
2015,08,29,06,33,983.81
2015,08,29,06,34,983.75
2015,08,29,06,35,983.75
2015,08,29,06,36,983.75
2015,08,29,06,37,983.81
2015,08,29,06,38,983.85
2015,08,29,06,39,983.81
2015,08,29,06,40,983.81
2015,08,29,06,41,983.64
2015,08,29,06,42,983.54
2015,08,29,06,43,983.54
2015,08,29,06,44,983.54
2015,08,29,06,45,983.58
2015,08,29,06,46,983.51
2015,08,29,06,47,983.44
2015,08,29,06,48,983.41
2015,08,29,06,49,983.41
2015,08,29,06,50,983.34
2015,08,29,06,51,983.34
2015,08,29,06,52,983.31
2015,08,29,06,53,983.34
2015,08,29,06,54,983.27
2015,08,29,06,55,983.14
2015,08,29,06,56,983.14
2015,08,29,06,57,983.10
2015,08,29,06,58,983.17
2015,08,29,06,59,983.20
2015,08,29,07,01,983.10
2015,08,29,07,02,983.00
2015,08,29,07,03,983.00
2015,08,29,07,04,982.97
2015,08,29,07,05,982.93
2015,08,29,07,06,982.93
2015,08,29,07,07,982.83
2015,08,29,07,08,982.83
2015,08,29,07,09,982.83
2015,08,29,07,10,982.87
2015,08,29,07,11,982.76
2015,08,29,07,12,982.73
2015,08,29,07,13,982.73
2015,08,29,07,14,982.70
2015,08,29,07,15,982.70
2015,08,29,07,16,982.70
2015,08,29,07,17,982.66
2015,08,29,07,18,982.76
2015,08,29,07,19,982.76
2015,08,29,07,20,982.76
2015,08,29,07,21,982.76
2015,08,29,07,22,982.63
2015,08,29,07,23,982.63
2015,08,29,07,25,982.63
2015,08,29,07,26,982.59
2015,08,29,07,27,982.63
2015,08,29,07,28,982.70
2015,08,29,07,29,982.66
2015,08,29,07,30,982.66
2015,08,29,07,31,982.59
2015,08,29,07,32,982.63
2015,08,29,07,33,982.63
2015,08,29,07,34,982.63
2015,08,29,07,35,982.63
2015,08,29,07,36,982.70
2015,08,29,07,37,982.70
2015,08,29,07,38,982.59
2015,08,29,07,39,982.63
2015,08,29,07,40,982.66
2015,08,29,07,41,982.73
2015,08,29,07,42,982.73
2015,08,29,07,43,982.66
2015,08,29,07,44,982.63
2015,08,29,07,45,982.63
2015,08,29,07,46,982.63
2015,08,29,07,47,982.66
2015,08,29,07,48,982.70
2015,08,29,07,49,982.70
2015,08,29,07,50,982.66
2015,08,29,07,51,982.59
2015,08,29,07,52,982.63
2015,08,29,07,53,982.63
2015,08,29,07,54,982.66
2015,08,29,07,55,982.59
2015,08,29,07,56,982.56
2015,08,29,07,57,982.56
2015,08,29,07,58,982.63
2015,08,29,07,59,982.56
2015,08,29,08,00,982.49
2015,08,29,08,01,982.49
2015,08,29,08,02,982.53
2015,08,29,08,03,982.49
2015,08,29,08,04,982.49
2015,08,29,08,05,982.56
2015,08,29,08,06,982.56
2015,08,29,08,07,982.56
2015,08,29,08,08,982.39
2015,08,29,08,09,982.39
2015,08,29,08,11,982.43
2015,08,29,08,12,982.43
2015,08,29,08,14,982.36
2015,08,29,08,15,982.36
2015,08,29,08,16,982.29
2015,08,29,08,17,982.29
2015,08,29,08,19,982.36
2015,08,29,08,20,982.15
2015,08,29,08,21,982.05
2015,08,29,08,22,981.99
2015,08,29,08,23,982.05
2015,08,29,08,24,982.09
2015,08,29,08,25,982.05
2015,08,29,08,26,982.15
2015,08,29,08,27,982.22
2015,08,29,08,28,982.29
2015,08,29,08,29,982.29
2015,08,29,08,30,982.46
2015,08,29,08,31,982.22
2015,08,29,08,32,982.19
2015,08,29,08,33,982.12
2015,08,29,08,34,982.26
2015,08,29,08,35,982.15
2015,08,29,08,36,982.22
2015,08,29,08,37,982.15
2015,08,29,08,38,982.05
2015,08,29,08,39,982.02
2015,08,29,08,40,982.05
2015,08,29,08,41,982.15
2015,08,29,08,42,982.19
2015,08,29,08,43,982.29
2015,08,29,08,44,982.22
2015,08,29,08,45,982.29
2015,08,29,08,46,982.26
2015,08,29,08,47,982.29
2015,08,29,08,48,982.36
2015,08,29,08,49,982.43
2015,08,29,08,50,982.59
2015,08,29,08,51,982.49
2015,08,29,08,52,982.53
2015,08,29,08,53,982.46
2015,08,29,08,54,982.70
2015,08,29,08,55,982.63
2015,08,29,08,56,982.73
2015,08,29,08,58,982.66
2015,08,29,08,59,982.49
2015,08,29,09,00,982.70
2015,08,29,09,01,982.56
2015,08,29,09,02,982.63
2015,08,29,09,03,982.56
2015,08,29,09,04,982.53
2015,08,29,09,05,982.63
2015,08,29,09,06,982.66
2015,08,29,09,07,982.66
2015,08,29,09,08,982.66
2015,08,29,09,09,982.76
2015,08,29,09,10,982.70
2015,08,29,09,11,982.87
2015,08,29,09,12,982.83
2015,08,29,09,13,982.87
2015,08,29,09,14,982.93
2015,08,29,09,15,982.97
2015,08,29,09,16,983.00
2015,08,29,09,17,982.93
2015,08,29,09,18,982.83
2015,08,29,09,19,982.90
2015,08,29,09,20,982.97
2015,08,29,09,21,982.93
2015,08,29,09,22,982.93
2015,08,29,09,23,982.90
2015,08,29,09,24,982.87
2015,08,29,09,25,982.97
2015,08,29,09,26,982.90
2015,08,29,09,27,982.97
2015,08,29,09,28,982.97
2015,08,29,09,29,982.97
2015,08,29,09,30,982.90
2015,08,29,09,31,982.80
2015,08,29,09,32,982.76
2015,08,29,09,33,982.76
2015,08,29,09,34,982.83
2015,08,29,09,35,982.76
2015,08,29,09,36,982.76
2015,08,29,09,37,982.80
2015,08,29,09,38,982.76
2015,08,29,09,39,982.80
2015,08,29,09,40,982.90
2015,08,29,09,41,982.90
2015,08,29,09,42,982.83
2015,08,29,09,43,982.83
2015,08,29,09,44,982.90
2015,08,29,09,45,982.87
2015,08,29,09,46,982.80
2015,08,29,09,47,982.76
2015,08,29,09,48,982.70
2015,08,29,09,49,982.73
2015,08,29,09,50,982.83
2015,08,29,09,51,982.93
2015,08,29,09,52,982.87
2015,08,29,09,53,982.87
2015,08,29,09,54,982.90
2015,08,29,09,55,983.00
2015,08,29,09,56,983.03
2015,08,29,09,57,983.14
2015,08,29,09,58,983.17
2015,08,29,09,59,982.87
2015,08,29,10,00,982.76
2015,08,29,10,01,982.70
2015,08,29,10,02,982.83
2015,08,29,10,03,982.63
2015,08,29,10,04,982.70
2015,08,29,10,05,982.66
2015,08,29,10,06,982.66
2015,08,29,10,07,982.70
2015,08,29,10,08,982.59
2015,08,29,10,09,982.59
2015,08,29,10,10,982.56
2015,08,29,10,11,982.56
2015,08,29,10,12,982.49
2015,08,29,10,13,982.59
2015,08,29,10,14,982.53
2015,08,29,10,15,982.43
2015,08,29,10,16,982.39
2015,08,29,10,17,982.43
2015,08,29,10,18,982.46
2015,08,29,10,19,982.39
2015,08,29,10,20,982.39
2015,08,29,10,21,982.32
2015,08,29,10,22,982.32
2015,08,29,10,23,982.22
2015,08,29,10,24,982.15
2015,08,29,10,25,982.05
2015,08,29,10,26,982.09
2015,08,29,10,27,982.15
2015,08,29,10,28,982.22
2015,08,29,10,29,982.26
2015,08,29,10,30,982.32
2015,08,29,10,31,982.39
2015,08,29,10,32,982.39
2015,08,29,10,33,982.43
2015,08,29,10,34,982.39
2015,08,29,10,35,982.36
2015,08,29,10,36,982.32
2015,08,29,10,37,982.29
2015,08,29,10,38,982.43
2015,08,29,10,39,982.46
2015,08,29,10,40,982.32
2015,08,29,10,41,982.22
2015,08,29,10,42,982.22
2015,08,29,10,43,982.15
2015,08,29,10,44,982.15
2015,08,29,10,45,982.12
2015,08,29,10,46,982.15
2015,08,29,10,47,982.09
2015,08,29,10,48,982.05
2015,08,29,10,49,982.02
2015,08,29,10,50,982.02
2015,08,29,10,51,981.92
2015,08,29,10,52,981.92
2015,08,29,10,53,981.92
2015,08,29,10,54,981.95
2015,08,29,10,55,981.88
2015,08,29,10,56,981.92
2015,08,29,10,57,981.82
2015,08,29,10,58,981.78
2015,08,29,10,59,981.78
2015,08,29,11,00,981.78
2015,08,29,11,01,981.82
2015,08,29,11,02,981.75
2015,08,29,11,03,981.71
2015,08,29,11,04,981.71
2015,08,29,11,05,981.65
2015,08,29,11,06,981.68
2015,08,29,11,07,981.68
2015,08,29,11,08,981.71
2015,08,29,11,09,981.65
2015,08,29,11,10,981.61
2015,08,29,11,11,981.54
2015,08,29,11,12,981.58
2015,08,29,11,13,981.48
2015,08,29,11,14,981.38
2015,08,29,11,15,981.24
2015,08,29,11,16,981.17
2015,08,29,11,17,981.00
2015,08,29,11,18,980.87
2015,08,29,11,19,980.90
2015,08,29,11,20,980.97
2015,08,29,11,21,980.97
2015,08,29,11,22,981.04
2015,08,29,11,23,980.97
2015,08,29,11,24,980.94
2015,08,29,11,25,980.90
2015,08,29,11,26,980.83
2015,08,29,11,27,980.83
2015,08,29,11,28,980.73
2015,08,29,11,29,980.73
2015,08,29,11,30,980.66
2015,08,29,11,31,980.70
2015,08,29,11,32,980.70
2015,08,29,11,33,980.66
2015,08,29,11,34,980.66
2015,08,29,11,35,980.63
2015,08,29,11,36,980.63
2015,08,29,11,37,980.60
2015,08,29,11,38,980.53
2015,08,29,11,39,980.46
2015,08,29,11,40,980.46
2015,08,29,11,41,980.39
2015,08,29,11,42,980.46
2015,08,29,11,43,980.43
2015,08,29,11,44,980.43
2015,08,29,11,45,980.43
2015,08,29,11,46,980.46
2015,08,29,11,47,980.46
2015,08,29,11,48,980.39
2015,08,29,11,49,980.36
2015,08,29,11,50,980.36
2015,08,29,11,51,980.36
2015,08,29,11,52,980.39
2015,08,29,11,53,980.46
2015,08,29,11,54,980.53
2015,08,29,11,55,980.56
2015,08,29,11,56,980.60
2015,08,29,11,57,980.63
2015,08,29,11,58,980.60
2015,08,29,11,59,980.53
2015,08,29,12,00,980.53
2015,08,29,12,01,980.60
2015,08,29,12,02,980.63
2015,08,29,12,03,980.60
2015,08,29,12,04,980.53
2015,08,29,12,05,980.46
2015,08,29,12,06,980.43
2015,08,29,12,07,980.43
2015,08,29,12,08,980.46
2015,08,29,12,09,980.50
2015,08,29,12,10,980.50
2015,08,29,12,11,980.56
2015,08,29,12,12,980.56
2015,08,29,12,13,980.56
2015,08,29,12,14,980.56
2015,08,29,12,15,980.53
2015,08,29,12,16,980.53
2015,08,29,12,17,980.50
2015,08,29,12,18,980.53
2015,08,29,12,19,980.56
2015,08,29,12,20,980.53
2015,08,29,12,21,980.56
2015,08,29,12,22,980.56
2015,08,29,12,23,980.66
2015,08,29,12,24,980.63
2015,08,29,12,25,980.63
2015,08,29,12,26,980.63
2015,08,29,12,27,980.73
2015,08,29,12,28,980.73
2015,08,29,12,29,980.80
2015,08,29,12,30,980.83
2015,08,29,12,31,980.87
2015,08,29,12,32,980.87
2015,08,29,12,33,980.87
2015,08,29,12,34,980.90
2015,08,29,12,35,980.97
2015,08,29,12,36,980.94
2015,08,29,12,37,980.90
2015,08,29,12,38,980.94
2015,08,29,12,39,981.04
2015,08,29,12,40,981.07
2015,08,29,12,41,981.21
2015,08,29,12,42,981.24
2015,08,29,12,43,981.24
2015,08,29,12,44,981.24
2015,08,29,12,45,981.31
2015,08,29,12,46,981.21
2015,08,29,12,47,981.24
2015,08,29,12,48,981.34
2015,08,29,12,49,981.41
2015,08,29,12,50,981.38
2015,08,29,12,51,981.48
2015,08,29,12,52,981.61
2015,08,29,12,53,981.65
2015,08,29,12,54,981.48
2015,08,29,12,55,981.54
2015,08,29,12,56,981.75
2015,08,29,12,57,981.65
2015,08,29,12,58,981.65
2015,08,29,12,59,981.54
2015,08,29,13,00,981.54
2015,08,29,13,01,981.58
2015,08,29,13,02,981.58
2015,08,29,13,03,981.85
2015,08,29,13,04,981.95
2015,08,29,13,05,981.88
2015,08,29,13,06,982.26
2015,08,29,13,07,981.88
2015,08,29,13,08,982.12
2015,08,29,13,09,982.12
2015,08,29,13,10,982.12
2015,08,29,13,11,982.02
2015,08,29,13,12,982.09
2015,08,29,13,13,982.02
2015,08,29,13,14,982.26
2015,08,29,13,15,982.22
2015,08,29,13,16,982.19
2015,08,29,13,17,982.15
2015,08,29,13,18,982.39
2015,08,29,13,19,982.56
2015,08,29,13,20,982.46
2015,08,29,13,21,982.36
2015,08,29,13,22,982.46
2015,08,29,13,23,982.46
2015,08,29,13,24,982.49
2015,08,29,13,25,982.43
2015,08,29,13,26,982.49
2015,08,29,13,27,982.53
2015,08,29,13,28,982.66
2015,08,29,13,29,982.59
2015,08,29,13,30,982.59
2015,08,29,13,31,982.76
2015,08,29,13,32,982.90
2015,08,29,13,33,982.76
2015,08,29,13,34,982.80
2015,08,29,13,35,982.83
2015,08,29,13,36,982.97
2015,08,29,13,37,983.07
2015,08,29,13,38,983.10
2015,08,29,13,39,983.20
2015,08,29,13,40,983.37
2015,08,29,13,41,983.54
2015,08,29,13,42,983.54
2015,08,29,13,43,983.51
2015,08,29,13,44,983.37
2015,08,29,13,45,983.64
2015,08,29,13,46,983.68
2015,08,29,13,47,983.78
2015,08,29,13,48,983.78
2015,08,29,13,49,984.15
2015,08,29,13,50,984.46
2015,08,29,13,51,984.08
2015,08,29,13,52,984.02
2015,08,29,13,53,983.95
2015,08,29,13,54,984.15
2015,08,29,13,55,984.46
2015,08,29,13,56,984.29
2015,08,29,13,57,984.36
2015,08,29,13,58,984.36
2015,08,29,13,59,984.46
2015,08,29,14,00,984.63
2015,08,29,14,01,984.69
2015,08,29,14,02,984.63
2015,08,29,14,03,984.80
2015,08,29,14,04,985.03
2015,08,29,14,05,985.27
2015,08,29,14,06,985.10
2015,08,29,14,07,985.13
2015,08,29,14,08,985.17
2015,08,29,14,09,985.27
2015,08,29,14,10,985.17
2015,08,29,14,11,985.37
2015,08,29,14,12,985.51
2015,08,29,14,13,985.78
2015,08,29,14,14,985.64
2015,08,29,14,15,985.64
2015,08,29,14,16,985.71
2015,08,29,14,17,985.74
2015,08,29,14,18,985.78
2015,08,29,14,19,986.12
2015,08,29,14,20,985.81
2015,08,29,14,21,986.49
2015,08,29,14,22,986.25
2015,08,29,14,23,986.25
2015,08,29,14,24,986.39
2015,08,29,14,25,986.46
2015,08,29,14,26,986.32
2015,08,29,14,27,986.42
2015,08,29,14,28,986.76
2015,08,29,14,29,986.56
2015,08,29,14,30,986.86
2015,08,29,14,31,986.73
2015,08,29,14,32,986.90
2015,08,29,14,33,986.73
2015,08,29,14,34,986.96
2015,08,29,14,35,987.06
2015,08,29,14,36,986.83
2015,08,29,14,37,986.76
2015,08,29,14,38,986.93
2015,08,29,14,39,987.23
2015,08,29,14,40,987.03
2015,08,29,14,41,987.03
2015,08,29,14,42,987.37
2015,08,29,14,43,987.10
2015,08,29,14,44,987.13
2015,08,29,14,45,987.13
2015,08,29,14,46,987.17
2015,08,29,14,47,987.23
2015,08,29,14,48,987.23
2015,08,29,14,49,987.27
2015,08,29,14,50,987.06
2015,08,29,14,51,987.13
2015,08,29,14,52,987.20
2015,08,29,14,53,987.20
2015,08,29,14,54,987.10
2015,08,29,14,55,987.06
2015,08,29,14,56,987.34
2015,08,29,14,57,987.23
2015,08,29,14,58,987.23
2015,08,29,14,59,987.34
2015,08,29,15,00,987.23
2015,08,29,15,01,987.34
2015,08,29,15,02,987.27
2015,08,29,15,03,987.30
2015,08,29,15,04,987.30
2015,08,29,15,05,987.34
2015,08,29,15,06,987.40
2015,08,29,15,07,987.40
2015,08,29,15,08,987.40
2015,08,29,15,09,987.50
2015,08,29,15,10,987.57
2015,08,29,15,11,987.40
2015,08,29,15,12,987.37
2015,08,29,15,13,987.81
2015,08,29,15,14,987.47
2015,08,29,15,15,987.47
2015,08,29,15,16,987.47
2015,08,29,15,17,987.50
2015,08,29,15,18,987.47
2015,08,29,15,19,987.54
2015,08,29,15,20,987.44
2015,08,29,15,21,987.50
2015,08,29,15,22,987.44
2015,08,29,15,23,987.54
2015,08,29,15,24,987.61
2015,08,29,15,25,987.54
2015,08,29,15,26,987.61
2015,08,29,15,27,987.64
2015,08,29,15,28,987.61
2015,08,29,15,29,987.61
2015,08,29,15,30,987.40
2015,08,29,15,31,987.50
2015,08,29,15,32,987.54
2015,08,29,15,33,987.74
2015,08,29,15,34,987.54
2015,08,29,15,35,987.67
2015,08,29,15,36,987.54
2015,08,29,15,37,987.64
2015,08,29,15,38,987.81
2015,08,29,15,39,987.71
2015,08,29,15,40,987.84
2015,08,29,15,41,987.84
2015,08,29,15,42,987.95
2015,08,29,15,43,988.05
2015,08,29,15,44,988.01
2015,08,29,15,45,988.15
2015,08,29,15,46,988.18
2015,08,29,15,47,988.28
2015,08,29,15,48,988.32
2015,08,29,15,49,988.28
2015,08,29,15,50,988.35
2015,08,29,15,51,988.45
2015,08,29,15,52,988.32
2015,08,29,15,53,988.32
2015,08,29,15,54,988.22
2015,08,29,15,55,988.22
2015,08,29,15,56,988.35
2015,08,29,15,57,988.32
2015,08,29,15,58,988.22
2015,08,29,15,59,988.22
2015,08,29,16,00,988.25
2015,08,29,16,01,988.25
2015,08,29,16,02,988.18
2015,08,29,16,03,988.32
2015,08,29,16,04,988.28
2015,08,29,16,05,988.32
2015,08,29,16,06,988.28
2015,08,29,16,07,988.28
2015,08,29,16,08,988.25
2015,08,29,16,09,988.18
2015,08,29,16,10,988.35
2015,08,29,16,11,988.35
2015,08,29,16,12,988.39
2015,08,29,16,13,988.35
2015,08,29,16,14,988.39
2015,08,29,16,15,988.35
2015,08,29,16,16,988.39
2015,08,29,16,17,988.39
2015,08,29,16,18,988.42
2015,08,29,16,19,988.49
2015,08,29,16,20,988.42
2015,08,29,16,21,988.49
2015,08,29,16,22,988.55
2015,08,29,16,23,988.55
2015,08,29,16,24,988.45
2015,08,29,16,25,988.35
2015,08,29,16,26,988.28
2015,08,29,16,27,988.32
2015,08,29,16,28,988.32
2015,08,29,16,29,988.35
2015,08,29,16,30,988.35
2015,08,29,16,31,988.39
2015,08,29,16,32,988.45
2015,08,29,16,33,988.66
2015,08,29,16,34,988.86
2015,08,29,16,35,988.86
2015,08,29,16,36,988.83
2015,08,29,16,37,988.83
2015,08,29,16,38,988.79
2015,08,29,16,39,988.79
2015,08,29,16,40,988.72
2015,08,29,16,41,988.79
2015,08,29,16,42,988.79
2015,08,29,16,43,988.83
2015,08,29,16,44,988.76
2015,08,29,16,45,988.86
2015,08,29,16,46,988.93
2015,08,29,16,47,988.99
2015,08,29,16,48,988.96
2015,08,29,16,49,988.89
2015,08,29,16,50,988.86
2015,08,29,16,51,988.86
2015,08,29,16,52,988.72
2015,08,29,16,53,988.66
2015,08,29,16,54,988.76
2015,08,29,16,55,988.72